TimeEDT,TemperatureF,Dew PointF,Humidity,Sea Level PressureIn,VisibilityMPH,Wind Direction,Wind SpeedMPH,Gust SpeedMPH,PrecipitationIn,Events,Conditions,WindDirDegrees,DateUTC
12:37 AM,48.2,37.4,66,30.19,10.0,NNE,13.8,-,N/A,,Overcast,20,2012-10-12 04:37:00
12:53 AM,46.9,37.0,68,30.22,10.0,NNE,13.8,-,N/A,,Overcast,20,2012-10-12 04:53:00
1:53 AM,45.0,36.0,71,30.25,10.0,NNE,10.4,-,N/A,,Overcast,20,2012-10-12 05:53:00
2:00 AM,44.6,35.6,71,30.24,10.0,NNE,12.7,-,N/A,,Overcast,20,2012-10-12 06:00:00
2:53 AM,43.0,36.0,76,30.26,10.0,NNE,11.5,-,N/A,,Overcast,30,2012-10-12 06:53:00
4:53 AM,41.0,34.0,76,30.30,10.0,NNW,4.6,-,0.00,,Overcast,340,2012-10-12 08:53:00
5:53 AM,39.9,34.0,79,30.32,10.0,NNW,6.9,-,N/A,,Overcast,340,2012-10-12 09:53:00
6:53 AM,37.9,33.1,83,30.36,10.0,NNW,5.8,-,N/A,,Unknown,340,2012-10-12 10:53:00
7:53 AM,36.0,30.9,82,30.39,10.0,North,4.6,-,N/A,,Clear,360,2012-10-12 11:53:00
8:53 AM,39.0,32.0,76,30.42,10.0,NNE,8.1,-,N/A,,Clear,20,2012-10-12 12:53:00
9:53 AM,42.1,30.9,65,30.44,10.0,NE,9.2,-,N/A,,Clear,40,2012-10-12 13:53:00
10:53 AM,46.0,28.0,50,30.46,10.0,NNE,12.7,-,N/A,,Clear,20,2012-10-12 14:53:00
1:53 PM,52.0,23.0,32,30.45,10.0,NE,5.8,-,N/A,,Clear,40,2012-10-12 17:53:00
2:53 PM,53.1,23.0,31,30.43,10.0,Variable,5.8,-,N/A,,Clear,0,2012-10-12 18:53:00
3:53 PM,53.1,21.0,29,30.42,10.0,East,6.9,-,N/A,,Clear,80,2012-10-12 19:53:00
4:53 PM,53.1,19.9,27,30.42,10.0,Variable,3.5,-,N/A,,Clear,0,2012-10-12 20:53:00
6:53 PM,48.0,28.9,48,30.42,10.0,SSE,9.2,-,N/A,,Clear,150,2012-10-12 22:53:00
7:53 PM,44.1,28.9,55,30.42,10.0,SE,4.6,-,N/A,,Clear,140,2012-10-12 23:53:00
8:53 PM,42.1,28.9,60,30.43,10.0,SSE,4.6,-,N/A,,Clear,160,2012-10-13 00:53:00
9:53 PM,41.0,30.0,65,30.44,10.0,South,3.5,-,N/A,,Clear,180,2012-10-13 01:53:00
10:53 PM,39.0,28.9,67,30.43,10.0,SSE,3.5,-,N/A,,Clear,160,2012-10-13 02:53:00
11:53 PM,39.0,28.9,67,30.42,10.0,Calm,Calm,-,N/A,,Clear,0,2012-10-13 03:53:00